STARLINK-36728, 67927

Orbit data source: Space-Track

STARLINK-36728, 67927 is a payload satellite owned by SpaceX/Seattle (US) in LEO that was launched on Sun, 22 Feb 2026 UTC via an FALCON 9 launch vehicle from the Air Force Eastern Test Range (AFETR). Payload-class satellites include a variety of spacecraft equipped with specific instruments for various scientific and technological missions. These include communications satellites like Starlink; space stations such as the ISS; scientific satellites like the Hubble; Earth observation satellites from companies like Planet Labs, Umbra, and HawkEye 360; GPS; miniature CubeSats for education and research; and military/defense satellites.

Loading next visibility...
Identifier
67927, 2026-036Z
Orbit
LEO
Country
Flag of USUS
Related business
Manufacturer
SpaceX/Seattle
Mission
Operational Commercial Communications
Bus & Motor
STARLINK V2MO, Unknown motor
Mass
575 kg wet, ~530 kg dry
Launch date (UTC)
2026-02-22 (4 months ago)
Launch vehicle
FALCON 9
Launch site
Air Force Eastern Test Range (AFETR)
Object type
Payload
Rocket body
Debris
Shape & HBR
Box + 2 Pan, 17.7 m
Radar Cross Section
36.964 m², Large (>1 m²)

Expand to show TLE details & history
Last TLE update: 14 hours ago

TLE from 14 hours ago
0 STARLINK-36728
1 67927U 26036Z   26171.28314749  .00011093  00000-0  41195-3 0  9990
2 67927  43.0076  25.7511 0001803 284.1457  75.9194 15.27587518 19416
Epoch: 2026-06-20T06:47Z
TLE epoch observation values (Epoch: 2026-06-20T06:47:43.943Z)
Latitude
-0.00003°
Longitude
15.31798°
Altitude
482.502 km
Speed
7.626 km/s
True Right ascension
01h 43m 00s
True Declination
0° 00' 00"
Sunlit
Object was in daylight at epoch
Visualization orbit readout
Latitude
Unknown
Longitude
Unknown
Altitude
Unknown
Speed
Unknown
Apparent Right ascension
Unknown
Apparent Declination
Unknown
Sunlit
N/A
Visualization observer readout
Local Sidereal Time
07:20:46
Azimuth
Unknown
Elevation
Unknown
Doppler factor
Unknown
Orbital elements
Apogee altitude
486.208 km
Perigee altitude
483.733 km
Semi-major axis
6,863.107 km
Eccentricity
0.00018
Inclination
43.0076°
RAAN
25.7511°
Arg. of periapsis
284.1457°
True anomaly
75.93944°
Mean anomaly
75.9194°
Eccentric anomaly
75.92942°
Mean motion
3.81735 °/min
Orbital period
94.31 mins
BSTAR
0.00041195
Loading maneuver chart data...
Computing Atmospheric mass density...
Loading historical data...
Loading historical data...
Loading historical data...
Loading historical data...
Loading historical data...
Loading historical data...
Loading historical data...

Documentation

Showing up to 5 results
|